Time,TemperatureF,DewpointF,PressureIn,WindDirection,WindDirectionDegrees,WindSpeedMPH,WindSpeedGustMPH,Humidity,HourlyPrecipIn,Conditions,Clouds,dailyrainin,SolarRadiationWatts/m^2,SoftwareType,DateUTC
2013-01-12 00:00:00,63.3,62.1,30.17,SSW,200,1.6,3.5,96,0.00,CLR,OVC,0.18,0.0,WeatherDisplay:10.37,2013-01-12 05:00:00,
2013-01-12 00:03:00,63.3,62.1,30.17,SSW,210,2.4,6.0,96,0.00,RA,OVC,0.00,0.0,WeatherDisplay:10.37,2013-01-12 05:03:00,
2013-01-12 00:08:00,63.4,62.2,30.17,West,268,2.7,5.8,96,0.00,RA,OVC,0.00,0.0,WeatherDisplay:10.37,2013-01-12 05:08:00,
2013-01-12 00:13:00,63.4,61.9,30.17,SW,227,2.7,3.5,95,0.00,CLR,OVC,0.00,0.0,WeatherDisplay:10.37,2013-01-12 05:13:00,
2013-01-12 00:18:00,63.5,62.0,30.17,South,186,3.6,6.9,95,0.00,CLR,OVC,0.00,0.0,WeatherDisplay:10.37,2013-01-12 05:18:00,
2013-01-12 00:23:00,63.6,62.1,30.17,SW,218,0.8,3.5,95,0.00,CLR,OVC,0.00,0.0,WeatherDisplay:10.37,2013-01-12 05:23:00,
2013-01-12 00:28:00,63.7,62.2,30.17,South,169,2.4,4.6,95,0.00,CLR,OVC,0.00,0.0,WeatherDisplay:10.37,2013-01-12 05:28:00,
2013-01-12 00:33:00,63.8,62.3,30.17,SSW,203,1.2,8.1,95,0.00,CLR,OVC,0.00,0.0,WeatherDisplay:10.37,2013-01-12 05:33:00,
2013-01-12 00:38:00,63.8,62.0,30.17,SSW,205,2.3,4.0,94,0.00,CLR,OVC,0.00,0.0,WeatherDisplay:10.37,2013-01-12 05:38:00,
2013-01-12 00:43:00,63.8,62.0,30.17,WSW,246,2.0,3.5,94,0.00,CLR,OVC,0.00,0.0,WeatherDisplay:10.37,2013-01-12 05:43:00,
2013-01-12 00:48:00,63.8,62.0,30.17,SSW,213,2.0,3.5,94,0.00,CLR,OVC,0.00,0.0,WeatherDisplay:10.37,2013-01-12 05:48:00,
2013-01-12 00:53:00,63.9,62.1,30.17,SSW,198,3.5,3.5,94,0.00,CLR,OVC,0.00,0.0,WeatherDisplay:10.37,2013-01-12 05:53:00,
2013-01-12 00:58:00,63.9,62.1,30.17,SW,224,2.7,6.9,94,0.00,CLR,OVC,0.00,0.0,WeatherDisplay:10.37,2013-01-12 05:58:00,
2013-01-12 01:03:00,63.9,62.1,30.17,SW,221,2.8,5.8,94,0.00,CLR,OVC,0.00,0.0,WeatherDisplay:10.37,2013-01-12 06:03:00,
2013-01-12 01:08:00,63.8,62.0,30.17,SW,230,1.7,4.0,94,0.00,CLR,OVC,0.00,0.0,WeatherDisplay:10.37,2013-01-12 06:08:00,
2013-01-12 01:13:00,63.8,62.3,30.17,SW,227,2.8,6.9,95,0.00,CLR,OVC,0.00,0.0,WeatherDisplay:10.37,2013-01-12 06:13:00,
2013-01-12 01:18:00,63.8,62.0,30.17,SW,221,2.4,5.0,94,0.00,CLR,OVC,0.00,0.0,WeatherDisplay:10.37,2013-01-12 06:18:00,
2013-01-12 01:23:00,63.8,62.3,30.16,SSW,196,2.3,5.8,95,0.00,CLR,OVC,0.00,0.0,WeatherDisplay:10.37,2013-01-12 06:23:00,
2013-01-12 01:28:00,63.8,62.3,30.17,SW,228,2.0,3.5,95,0.00,CLR,OVC,0.00,0.0,WeatherDisplay:10.37,2013-01-12 06:28:00,
2013-01-12 01:33:00,63.7,62.2,30.17,SW,221,3.7,4.6,95,0.00,CLR,OVC,0.00,0.0,WeatherDisplay:10.37,2013-01-12 06:33:00,
2013-01-12 01:38:00,63.8,62.3,30.17,South,188,1.7,3.5,95,0.00,CLR,OVC,0.00,0.0,WeatherDisplay:10.37,2013-01-12 06:38:00,
2013-01-12 01:43:00,63.8,62.3,30.17,South,174,2.1,5.8,95,0.00,CLR,OVC,0.00,0.0,WeatherDisplay:10.37,2013-01-12 06:43:00,
2013-01-12 01:48:00,63.8,62.3,30.17,SW,232,2.2,4.0,95,0.00,CLR,OVC,0.00,0.0,WeatherDisplay:10.37,2013-01-12 06:48:00,
2013-01-12 01:53:00,63.7,62.2,30.16,SW,235,5.4,9.2,95,0.00,CLR,OVC,0.00,0.0,WeatherDisplay:10.37,2013-01-12 06:53:00,
2013-01-12 01:58:00,63.7,62.2,30.16,SW,232,3.6,5.8,95,0.00,CLR,OVC,0.00,0.0,WeatherDisplay:10.37,2013-01-12 06:58:00,
2013-01-12 02:03:00,63.7,62.2,30.16,SW,232,4.7,6.0,95,0.00,CLR,OVC,0.00,0.0,WeatherDisplay:10.37,2013-01-12 07:03:00,
2013-01-12 02:08:00,63.7,62.2,30.16,South,187,2.2,3.5,95,0.00,CLR,OVC,0.00,0.0,WeatherDisplay:10.37,2013-01-12 07:08:00,
2013-01-12 02:13:00,63.6,62.1,30.16,SW,232,4.1,6.9,95,0.00,CLR,OVC,0.00,0.0,WeatherDisplay:10.37,2013-01-12 07:13:00,
2013-01-12 02:18:00,63.6,62.1,30.16,SW,217,4.1,8.1,95,0.00,CLR,OVC,0.00,0.0,WeatherDisplay:10.37,2013-01-12 07:18:00,
2013-01-12 02:23:00,63.6,62.1,30.15,SSW,205,2.4,5.8,95,0.00,CLR,OVC,0.00,0.0,WeatherDisplay:10.37,2013-01-12 07:23:00,
2013-01-12 02:28:00,63.6,62.1,30.16,SW,214,5.1,8.1,95,0.00,CLR,OVC,0.00,0.0,WeatherDisplay:10.37,2013-01-12 07:28:00,
2013-01-12 02:33:00,63.7,62.2,30.16,SW,215,2.9,5.8,95,0.00,CLR,OVC,0.00,0.0,WeatherDisplay:10.37,2013-01-12 07:33:00,
2013-01-12 02:38:00,63.8,62.3,30.16,SW,225,2.0,4.6,95,0.00,CLR,OVC,0.00,0.0,WeatherDisplay:10.37,2013-01-12 07:38:00,
2013-01-12 02:43:00,63.8,62.3,30.16,SW,220,0.8,3.5,95,0.00,CLR,OVC,0.00,0.0,WeatherDisplay:10.37,2013-01-12 07:43:00,
2013-01-12 02:48:00,63.7,62.2,30.16,WSW,243,1.4,3.5,95,0.00,CLR,OVC,0.00,0.0,WeatherDisplay:10.37,2013-01-12 07:48:00,
2013-01-12 02:53:00,63.7,61.9,30.17,WSW,252,1.2,3.5,94,0.00,CLR,OVC,0.00,0.0,WeatherDisplay:10.37,2013-01-12 07:53:00,
2013-01-12 02:58:00,63.6,61.8,30.17,WSW,256,1.4,3.5,94,0.00,CLR,OVC,0.00,0.0,WeatherDisplay:10.37,2013-01-12 07:58:00,
2013-01-12 03:03:00,63.5,62.0,30.17,SW,227,2.2,3.5,95,0.00,CLR,OVC,0.00,0.0,WeatherDisplay:10.37,2013-01-12 08:03:00,
2013-01-12 03:08:00,63.5,61.7,30.17,SW,233,1.8,4.0,94,0.00,CLR,OVC,0.00,0.0,WeatherDisplay:10.37,2013-01-12 08:08:00,
2013-01-12 03:13:00,63.5,61.7,30.17,SW,219,2.6,3.5,94,0.00,CLR,OVC,0.00,0.0,WeatherDisplay:10.37,2013-01-12 08:13:00,
2013-01-12 03:18:00,63.4,61.6,30.17,WSW,241,0.8,3.5,94,0.00,CLR,OVC,0.00,0.0,WeatherDisplay:10.37,2013-01-12 08:18:00,
2013-01-12 03:23:00,63.4,61.6,30.17,WSW,248,1.0,1.1,94,0.00,CLR,OVC,0.00,0.0,WeatherDisplay:10.37,2013-01-12 08:23:00,
2013-01-12 03:28:00,63.1,61.0,30.17,West,273,1.9,3.5,93,0.00,CLR,OVC,0.00,0.0,WeatherDisplay:10.37,2013-01-12 08:28:00,
2013-01-12 03:33:00,62.9,60.8,30.17,West,270,0.1,1.1,93,0.00,CLR,OVC,0.00,0.0,WeatherDisplay:10.37,2013-01-12 08:33:00,
2013-01-12 03:39:00,62.8,60.7,30.17,WNW,283,0.1,1.1,93,0.00,CLR,OVC,0.00,0.0,WeatherDisplay:10.37,2013-01-12 08:39:00,
2013-01-12 03:44:00,62.5,60.4,30.17,WNW,283,0.0,0.0,93,0.00,CLR,OVC,0.00,0.0,WeatherDisplay:10.37,2013-01-12 08:44:00,
2013-01-12 03:49:00,62.3,60.6,30.17,WNW,283,0.0,0.0,94,0.00,CLR,OVC,0.00,0.0,WeatherDisplay:10.37,2013-01-12 08:49:00,
2013-01-12 03:54:00,62.1,60.4,30.17,WNW,283,0.0,0.0,94,0.00,CLR,OVC,0.00,0.0,WeatherDisplay:10.37,2013-01-12 08:54:00,
2013-01-12 03:59:00,61.9,59.9,30.16,WNW,283,0.0,0.0,93,0.00,CLR,OVC,0.00,0.0,WeatherDisplay:10.37,2013-01-12 08:59:00,
2013-01-12 04:04:00,61.6,59.6,30.16,WNW,283,0.0,0.0,93,0.00,CLR,OVC,0.00,0.0,WeatherDisplay:10.37,2013-01-12 09:04:00,
2013-01-12 04:09:00,61.3,59.6,30.16,WNW,283,0.3,1.1,94,0.00,CLR,OVC,0.00,0.0,WeatherDisplay:10.37,2013-01-12 09:09:00,
2013-01-12 04:14:00,61.0,59.3,30.16,WNW,283,0.2,0.0,94,0.00,CLR,OVC,0.00,0.0,WeatherDisplay:10.37,2013-01-12 09:14:00,
2013-01-12 04:19:00,60.7,59.0,30.16,WNW,283,0.0,0.0,94,0.00,CLR,OVC,0.00,0.0,WeatherDisplay:10.37,2013-01-12 09:19:00,
2013-01-12 04:24:00,60.6,58.9,30.16,West,281,0.0,0.0,94,0.00,CLR,OVC,0.00,0.0,WeatherDisplay:10.37,2013-01-12 09:24:00,
2013-01-12 04:29:00,60.4,59.0,30.16,West,281,0.0,0.0,95,0.00,CLR,OVC,0.00,0.0,WeatherDisplay:10.37,2013-01-12 09:29:00,
2013-01-12 04:34:00,60.4,59.0,30.16,SW,232,0.7,2.3,95,0.00,CLR,OVC,0.00,0.0,WeatherDisplay:10.37,2013-01-12 09:34:00,
2013-01-12 04:39:00,60.4,59.3,30.16,WSW,241,0.2,3.5,96,0.00,CLR,OVC,0.00,0.0,WeatherDisplay:10.37,2013-01-12 09:39:00,
2013-01-12 04:44:00,60.6,59.5,30.16,SW,225,1.1,2.3,96,0.00,CLR,OVC,0.00,0.0,WeatherDisplay:10.37,2013-01-12 09:44:00,
2013-01-12 04:49:00,60.8,59.9,30.16,SW,220,1.4,3.5,97,0.00,CLR,OVC,0.00,0.0,WeatherDisplay:10.37,2013-01-12 09:49:00,
2013-01-12 04:54:00,60.9,59.8,30.16,SW,220,0.5,2.3,96,0.00,CLR,OVC,0.00,0.0,WeatherDisplay:10.37,2013-01-12 09:54:00,
2013-01-12 04:59:00,60.9,59.8,30.16,WSW,240,0.6,2.3,96,0.00,CLR,OVC,0.00,0.0,WeatherDisplay:10.37,2013-01-12 09:59:00,
2013-01-12 05:04:00,61.0,59.9,30.15,SW,224,0.3,1.1,96,0.00,CLR,OVC,0.00,0.0,WeatherDisplay:10.37,2013-01-12 10:04:00,
2013-01-12 05:09:00,61.1,60.0,30.15,WSW,237,1.9,3.5,96,0.00,CLR,OVC,0.00,0.0,WeatherDisplay:10.37,2013-01-12 10:09:00,
2013-01-12 05:14:00,61.1,60.0,30.15,SW,223,1.3,3.5,96,0.00,CLR,OVC,0.00,0.0,WeatherDisplay:10.37,2013-01-12 10:14:00,
2013-01-12 05:19:00,61.2,60.3,30.15,SW,234,0.7,2.3,97,0.01,RA,OVC,0.01,0.0,WeatherDisplay:10.37,2013-01-12 10:19:00,
2013-01-12 05:24:00,61.3,60.4,30.15,WSW,238,1.9,4.6,97,0.01,RA,OVC,0.01,0.0,WeatherDisplay:10.37,2013-01-12 10:24:00,
2013-01-12 05:29:00,61.3,60.4,30.15,SW,230,2.3,3.5,97,0.01,,OVC,0.01,0.0,WeatherDisplay:10.37,2013-01-12 10:29:00,
2013-01-12 05:34:00,61.4,60.5,30.15,SW,230,1.6,3.5,97,0.01,CLR,OVC,0.01,0.0,WeatherDisplay:10.37,2013-01-12 10:34:00,
2013-01-12 05:39:00,61.4,60.5,30.16,SW,223,0.6,2.3,97,0.01,CLR,OVC,0.01,0.0,WeatherDisplay:10.37,2013-01-12 10:39:00,
2013-01-12 05:44:00,61.4,60.5,30.16,SW,221,0.8,1.1,97,0.01,CLR,OVC,0.01,0.0,WeatherDisplay:10.37,2013-01-12 10:44:00,
2013-01-12 05:49:00,61.4,60.5,30.16,SW,232,0.0,0.0,97,0.01,CLR,OVC,0.01,0.0,WeatherDisplay:10.37,2013-01-12 10:49:00,
2013-01-12 05:54:00,61.3,60.4,30.16,WSW,251,1.4,3.5,97,0.01,CLR,OVC,0.01,0.0,WeatherDisplay:10.37,2013-01-12 10:54:00,
2013-01-12 05:59:00,61.3,60.4,30.16,WSW,248,0.2,1.1,97,0.01,CLR,OVC,0.01,0.0,WeatherDisplay:10.37,2013-01-12 10:59:00,
2013-01-12 06:04:00,61.2,60.3,30.16,SW,225,1.1,3.5,97,0.01,CLR,OVC,0.01,0.0,WeatherDisplay:10.37,2013-01-12 11:04:00,
2013-01-12 06:09:00,61.2,60.3,30.16,SW,216,2.2,3.5,97,0.01,CLR,OVC,0.01,0.0,WeatherDisplay:10.37,2013-01-12 11:09:00,
2013-01-12 06:14:00,61.3,60.4,30.16,SW,232,2.5,5.8,97,0.01,CLR,OVC,0.01,0.0,WeatherDisplay:10.37,2013-01-12 11:14:00,
2013-01-12 06:19:00,61.3,60.4,30.16,SW,230,0.0,1.1,97,0.00,CLR,OVC,0.01,0.0,WeatherDisplay:10.37,2013-01-12 11:19:00,
2013-01-12 06:24:00,61.3,60.4,30.16,SW,232,0.1,2.3,97,0.00,CLR,OVC,0.01,0.0,WeatherDisplay:10.37,2013-01-12 11:24:00,
2013-01-12 06:29:00,61.2,60.3,30.16,SW,221,0.3,2.3,97,0.00,CLR,OVC,0.01,0.0,WeatherDisplay:10.37,2013-01-12 11:29:00,
2013-01-12 06:34:00,61.1,60.2,30.17,SW,221,0.0,0.0,97,0.00,CLR,OVC,0.01,0.0,WeatherDisplay:10.37,2013-01-12 11:34:00,
2013-01-12 06:39:00,61.1,60.2,30.17,SW,221,0.3,1.1,97,0.00,CLR,OVC,0.01,0.0,WeatherDisplay:10.37,2013-01-12 11:39:00,
2013-01-12 06:44:00,61.1,60.2,30.17,SW,221,0.0,1.1,97,0.00,CLR,OVC,0.01,0.0,WeatherDisplay:10.37,2013-01-12 11:44:00,
2013-01-12 06:49:00,61.0,60.1,30.17,WSW,252,0.1,1.1,97,0.00,CLR,OVC,0.01,0.0,WeatherDisplay:10.37,2013-01-12 11:49:00,
2013-01-12 06:54:00,61.0,60.1,30.17,SW,215,1.6,2.3,97,0.00,CLR,OVC,0.01,0.0,WeatherDisplay:10.37,2013-01-12 11:54:00,
2013-01-12 06:59:00,61.0,60.1,30.17,SW,215,0.2,3.0,97,0.00,CLR,OVC,0.01,0.0,WeatherDisplay:10.37,2013-01-12 11:59:00,
2013-01-12 07:04:00,61.0,60.1,30.17,SW,218,0.1,1.1,97,0.00,OVC,,0.01,0.0,WeatherDisplay:10.37,2013-01-12 12:04:00,
2013-01-12 07:09:00,60.9,60.0,30.17,SW,218,0.1,1.1,97,0.00,OVC,,0.01,0.0,WeatherDisplay:10.37,2013-01-12 12:09:00,
2013-01-12 07:14:00,60.9,60.0,30.17,SW,218,0.2,1.1,97,0.00,OVC,,0.01,0.0,WeatherDisplay:10.37,2013-01-12 12:14:00,
2013-01-12 07:19:00,60.8,59.9,30.17,SW,218,0.2,1.1,97,0.00,OVC,,0.01,0.0,WeatherDisplay:10.37,2013-01-12 12:19:00,
2013-01-12 07:25:00,60.8,59.9,30.17,SW,218,0.9,1.1,97,0.00,OVC,,0.01,0.0,WeatherDisplay:10.37,2013-01-12 12:25:00,
2013-01-12 07:30:00,60.8,59.9,30.17,SW,218,0.3,1.1,97,0.00,OVC,,0.01,0.0,WeatherDisplay:10.37,2013-01-12 12:30:00,
2013-01-12 07:35:00,60.8,59.9,30.17,SW,218,1.3,2.3,97,0.00,OVC,,0.01,0.0,WeatherDisplay:10.37,2013-01-12 12:35:00,
2013-01-12 07:40:00,60.8,59.9,30.16,SW,218,0.8,1.1,97,0.00,OVC,,0.01,0.0,WeatherDisplay:10.37,2013-01-12 12:40:00,
2013-01-12 07:45:00,60.8,59.9,30.16,SW,219,0.6,2.3,97,0.00,OVC,,0.01,0.0,WeatherDisplay:10.37,2013-01-12 12:45:00,
2013-01-12 07:50:00,61.0,60.4,30.15,SW,219,0.0,1.1,98,0.00,OVC,,0.01,0.0,WeatherDisplay:10.37,2013-01-12 12:50:00,
2013-01-12 07:55:00,61.3,60.7,30.15,SW,222,0.8,3.5,98,0.00,OVC,,0.01,0.0,WeatherDisplay:10.37,2013-01-12 12:55:00,
2013-01-12 08:00:00,61.7,61.1,30.14,SSW,200,1.5,2.3,98,0.00,OVC,,0.01,0.0,WeatherDisplay:10.37,2013-01-12 13:00:00,
2013-01-12 08:05:00,62.0,61.4,30.14,WSW,257,0.5,2.3,98,0.00,OVC,,0.01,0.0,WeatherDisplay:10.37,2013-01-12 13:05:00,
2013-01-12 08:10:00,62.3,61.7,30.14,SW,225,1.0,2.3,98,0.00,OVC,,0.01,0.0,WeatherDisplay:10.37,2013-01-12 13:10:00,
2013-01-12 08:15:00,62.6,61.7,30.14,SSW,193,0.7,3.5,97,0.00,OVC,,0.01,0.0,WeatherDisplay:10.37,2013-01-12 13:15:00,
2013-01-12 08:20:00,62.9,62.0,30.14,NNW,327,2.2,4.6,97,0.00,OVC,,0.01,0.0,WeatherDisplay:10.37,2013-01-12 13:20:00,
2013-01-12 08:25:00,63.4,62.5,30.14,SSW,206,2.5,4.6,97,0.00,OVC,,0.01,0.0,WeatherDisplay:10.37,2013-01-12 13:25:00,
2013-01-12 08:30:00,63.7,62.5,30.14,WSW,250,4.7,5.8,96,0.00,OVC,,0.01,0.0,WeatherDisplay:10.37,2013-01-12 13:30:00,
2013-01-12 08:35:00,64.2,62.7,30.14,WSW,237,1.1,2.3,95,0.00,OVC,,0.01,0.0,WeatherDisplay:10.37,2013-01-12 13:35:00,
2013-01-12 08:40:00,64.7,63.2,30.15,SW,223,3.6,4.6,95,0.00,OVC,,0.01,0.0,WeatherDisplay:10.37,2013-01-12 13:40:00,
2013-01-12 08:45:00,65.1,63.0,30.15,WSW,255,2.7,5.0,93,0.00,OVC,,0.01,0.0,WeatherDisplay:10.37,2013-01-12 13:45:00,
2013-01-12 08:50:00,65.6,63.2,30.15,West,265,3.3,5.8,92,0.00,OVC,,0.01,0.0,WeatherDisplay:10.37,2013-01-12 13:50:00,
2013-01-12 08:55:00,66.1,63.7,30.15,WSW,250,3.2,5.8,92,0.00,OVC,,0.01,0.0,WeatherDisplay:10.37,2013-01-12 13:55:00,
2013-01-12 09:00:00,66.7,63.7,30.15,WSW,257,2.9,3.5,90,0.00,OVC,,0.01,0.0,WeatherDisplay:10.37,2013-01-12 14:00:00,
2013-01-12 09:05:00,67.2,63.8,30.15,WSW,251,3.4,6.0,89,0.00,OVC,,0.01,0.0,WeatherDisplay:10.37,2013-01-12 14:05:00,
2013-01-12 09:10:00,67.6,63.9,30.16,WSW,250,2.3,6.9,88,0.00,OVC,,0.01,0.0,WeatherDisplay:10.37,2013-01-12 14:10:00,
2013-01-12 09:15:00,68.0,64.3,30.16,WSW,242,4.6,7.0,88,0.00,OVC,,0.01,0.0,WeatherDisplay:10.37,2013-01-12 14:15:00,
2013-01-12 09:20:00,68.3,63.9,30.16,SW,232,4.6,6.9,86,0.00,OVC,,0.01,0.0,WeatherDisplay:10.37,2013-01-12 14:20:00,
2013-01-12 09:25:00,68.5,64.1,30.16,WNW,284,5.4,6.0,86,0.00,OVC,,0.01,0.0,WeatherDisplay:10.37,2013-01-12 14:25:00,
2013-01-12 09:30:00,68.9,64.5,30.16,SW,226,3.1,4.6,86,0.00,OVC,,0.01,0.0,WeatherDisplay:10.37,2013-01-12 14:30:00,
2013-01-12 09:35:00,69.2,64.5,30.16,SW,234,3.9,6.0,85,0.00,OVC,,0.01,0.0,WeatherDisplay:10.37,2013-01-12 14:35:00,
2013-01-12 09:40:00,69.4,64.4,30.16,WSW,242,1.6,4.6,84,0.00,OVC,,0.01,0.0,WeatherDisplay:10.37,2013-01-12 14:40:00,
2013-01-12 09:45:00,69.8,64.4,30.16,WSW,243,2.4,5.8,83,0.00,OVC,,0.01,0.0,WeatherDisplay:10.37,2013-01-12 14:45:00,
2013-01-12 09:50:00,70.1,64.7,30.16,WSW,248,4.7,6.9,83,0.00,OVC,,0.01,0.0,WeatherDisplay:10.37,2013-01-12 14:50:00,
2013-01-12 09:55:00,70.6,64.8,30.17,SW,233,3.9,12.0,82,0.00,OVC,,0.01,0.0,WeatherDisplay:10.37,2013-01-12 14:55:00,
2013-01-12 10:00:00,70.9,64.8,30.17,SW,226,4.0,8.1,81,0.00,OVC,,0.01,0.0,WeatherDisplay:10.37,2013-01-12 15:00:00,
2013-01-12 10:05:00,70.9,64.8,30.17,SW,227,2.6,5.0,81,0.00,OVC,,0.01,0.0,WeatherDisplay:10.37,2013-01-12 15:05:00,
2013-01-12 10:10:00,71.0,64.9,30.17,SW,220,2.2,6.9,81,0.00,OVC,,0.01,0.0,WeatherDisplay:10.37,2013-01-12 15:10:00,
2013-01-12 10:15:00,71.0,64.9,30.17,WSW,254,0.2,1.1,81,0.00,OVC,,0.01,0.0,WeatherDisplay:10.37,2013-01-12 15:15:00,
2013-01-12 10:20:00,71.0,64.9,30.18,West,265,2.1,5.8,81,0.00,OVC,,0.01,0.0,WeatherDisplay:10.37,2013-01-12 15:20:00,
2013-01-12 10:25:00,71.0,65.2,30.18,WSW,249,2.8,5.8,82,0.00,OVC,,0.01,0.0,WeatherDisplay:10.37,2013-01-12 15:25:00,
2013-01-12 10:30:00,71.2,65.4,30.18,West,263,0.2,1.1,82,0.00,OVC,,0.01,0.0,WeatherDisplay:10.37,2013-01-12 15:30:00,
2013-01-12 10:35:00,71.3,65.2,30.17,SW,223,0.9,2.3,81,0.00,OVC,,0.01,0.0,WeatherDisplay:10.37,2013-01-12 15:35:00,
2013-01-12 10:40:00,71.4,65.6,30.17,West,281,2.5,5.8,82,0.00,OVC,,0.01,0.0,WeatherDisplay:10.37,2013-01-12 15:40:00,
2013-01-12 10:45:00,71.6,65.5,30.17,SSW,212,1.1,3.5,81,0.00,OVC,,0.01,0.0,WeatherDisplay:10.37,2013-01-12 15:45:00,
2013-01-12 10:50:00,71.8,65.7,30.16,SW,225,0.9,2.3,81,0.00,OVC,,0.01,0.0,WeatherDisplay:10.37,2013-01-12 15:50:00,
2013-01-12 10:55:00,72.0,65.8,30.16,WNW,300,1.2,3.5,81,0.00,OVC,,0.01,0.0,WeatherDisplay:10.37,2013-01-12 15:55:00,
2013-01-12 11:00:00,72.1,65.6,30.16,SW,222,2.7,5.8,80,0.00,OVC,,0.01,0.0,WeatherDisplay:10.37,2013-01-12 16:00:00,
2013-01-12 11:05:00,72.4,65.9,30.16,WSW,242,2.1,4.6,80,0.00,OVC,,0.01,0.0,WeatherDisplay:10.37,2013-01-12 16:05:00,
2013-01-12 11:10:00,72.5,65.6,30.15,SW,225,2.4,3.5,79,0.00,OVC,,0.01,0.0,WeatherDisplay:10.37,2013-01-12 16:10:00,
2013-01-12 11:15:00,72.9,65.6,30.15,SSW,208,1.9,5.8,78,0.00,OVC,,0.01,0.0,WeatherDisplay:10.37,2013-01-12 16:15:00,
2013-01-12 11:20:00,73.3,66.4,30.15,NW,311,1.3,3.5,79,0.00,OVC,,0.01,0.0,WeatherDisplay:10.37,2013-01-12 16:20:00,
2013-01-12 11:25:00,73.9,66.2,30.15,ENE,63,0.2,2.3,77,0.00,OVC,,0.01,0.0,WeatherDisplay:10.37,2013-01-12 16:25:00,
2013-01-12 11:30:00,74.5,66.4,30.15,SW,234,0.6,2.3,76,0.00,OVC,,0.01,0.0,WeatherDisplay:10.37,2013-01-12 16:30:00,
2013-01-12 11:35:00,75.1,66.2,30.14,WNW,303,1.1,3.5,74,0.00,OVC,,0.01,0.0,WeatherDisplay:10.37,2013-01-12 16:35:00,
2013-01-12 11:40:00,75.3,66.0,30.14,SW,234,3.8,5.8,73,0.00,OVC,,0.01,0.0,WeatherDisplay:10.37,2013-01-12 16:40:00,
2013-01-12 11:45:00,75.3,66.0,30.14,SSW,212,3.8,7.0,73,0.00,OVC,,0.01,0.0,WeatherDisplay:10.37,2013-01-12 16:45:00,
2013-01-12 11:50:00,75.2,65.9,30.14,SW,226,2.0,5.8,73,0.00,OVC,,0.01,0.0,WeatherDisplay:10.37,2013-01-12 16:50:00,
2013-01-12 11:55:00,75.3,66.0,30.14,West,269,4.3,8.1,73,0.00,OVC,,0.01,0.0,WeatherDisplay:10.37,2013-01-12 16:55:00,
2013-01-12 12:00:00,75.5,65.8,30.13,SW,229,0.0,0.0,72,0.00,OVC,,0.01,0.0,WeatherDisplay:10.37,2013-01-12 17:00:00,
2013-01-12 12:05:00,75.9,66.2,30.14,WNW,302,2.8,6.9,72,0.00,OVC,,0.01,0.0,WeatherDisplay:10.37,2013-01-12 17:05:00,
2013-01-12 12:10:00,76.0,66.3,30.13,West,275,2.1,3.5,72,0.00,OVC,,0.01,0.0,WeatherDisplay:10.37,2013-01-12 17:10:00,
2013-01-12 12:15:00,76.1,66.4,30.13,NW,312,0.9,3.5,72,0.00,OVC,,0.01,0.0,WeatherDisplay:10.37,2013-01-12 17:15:00,
2013-01-12 12:20:00,76.1,66.4,30.13,West,266,1.0,3.5,72,0.00,OVC,,0.01,0.0,WeatherDisplay:10.37,2013-01-12 17:20:00,
2013-01-12 12:25:00,76.2,66.1,30.13,SW,234,1.5,2.3,71,0.00,OVC,,0.01,0.0,WeatherDisplay:10.37,2013-01-12 17:25:00,
2013-01-12 12:30:00,76.2,66.5,30.13,WSW,254,2.7,5.8,72,0.00,OVC,,0.01,0.0,WeatherDisplay:10.37,2013-01-12 17:30:00,
2013-01-12 12:35:00,76.1,66.4,30.13,WSW,247,1.0,8.0,72,0.00,OVC,,0.01,0.0,WeatherDisplay:10.37,2013-01-12 17:35:00,
2013-01-12 12:40:00,76.1,65.6,30.12,WSW,246,1.5,3.5,70,0.00,OVC,,0.01,0.0,WeatherDisplay:10.37,2013-01-12 17:40:00,
2013-01-12 12:45:00,75.9,65.8,30.12,WNW,287,2.2,3.5,71,0.00,OVC,,0.01,0.0,WeatherDisplay:10.37,2013-01-12 17:45:00,
2013-01-12 12:50:00,76.0,65.9,30.12,SSW,196,0.2,4.0,71,0.00,OVC,,0.01,0.0,WeatherDisplay:10.37,2013-01-12 17:50:00,
2013-01-12 12:55:00,76.3,65.8,30.12,WSW,245,4.1,6.0,70,0.00,OVC,,0.01,0.0,WeatherDisplay:10.37,2013-01-12 17:55:00,
2013-01-12 13:00:00,76.3,65.8,30.12,WSW,246,2.3,3.5,70,0.00,OVC,,0.01,0.0,WeatherDisplay:10.37,2013-01-12 18:00:00,
2013-01-12 13:05:00,76.4,65.9,30.11,NW,307,3.5,5.8,70,0.00,OVC,,0.01,0.0,WeatherDisplay:10.37,2013-01-12 18:05:00,
2013-01-12 13:11:00,76.5,66.4,30.11,SW,229,1.5,3.5,71,0.00,OVC,,0.01,0.0,WeatherDisplay:10.37,2013-01-12 18:11:00,
2013-01-12 13:16:00,76.6,66.1,30.11,SW,227,0.1,3.5,70,0.00,OVC,,0.01,0.0,WeatherDisplay:10.37,2013-01-12 18:16:00,
2013-01-12 13:21:00,76.7,66.2,30.11,SW,230,2.6,3.5,70,0.00,OVC,,0.01,0.0,WeatherDisplay:10.37,2013-01-12 18:21:00,
2013-01-12 13:26:00,76.7,65.8,30.11,West,270,3.8,11.0,69,0.00,OVC,,0.01,0.0,WeatherDisplay:10.37,2013-01-12 18:26:00,
2013-01-12 13:31:00,76.6,64.8,30.11,WSW,252,4.2,6.9,67,0.00,OVC,,0.01,0.0,WeatherDisplay:10.37,2013-01-12 18:31:00,
2013-01-12 13:36:00,76.6,65.2,30.11,West,264,2.2,5.0,68,0.00,OVC,,0.01,0.0,WeatherDisplay:10.37,2013-01-12 18:36:00,
2013-01-12 13:41:00,76.7,64.9,30.10,WSW,248,4.2,4.6,67,0.00,OVC,,0.01,0.0,WeatherDisplay:10.37,2013-01-12 18:41:00,
2013-01-12 13:46:00,76.8,65.4,30.10,ESE,123,1.3,3.5,68,0.00,OVC,,0.01,0.0,WeatherDisplay:10.37,2013-01-12 18:46:00,
2013-01-12 13:51:00,77.0,65.2,30.10,SW,229,0.4,2.3,67,0.00,OVC,,0.01,0.0,WeatherDisplay:10.37,2013-01-12 18:51:00,
2013-01-12 13:56:00,77.0,65.2,30.10,South,175,2.5,3.5,67,0.00,OVC,,0.01,0.0,WeatherDisplay:10.37,2013-01-12 18:56:00,
2013-01-12 14:01:00,77.0,65.2,30.10,West,273,3.0,6.9,67,0.00,OVC,,0.01,0.0,WeatherDisplay:10.37,2013-01-12 19:01:00,
2013-01-12 14:06:00,77.1,65.3,30.09,SW,217,2.3,6.9,67,0.00,OVC,,0.01,0.0,WeatherDisplay:10.37,2013-01-12 19:06:00,
2013-01-12 14:11:00,77.1,65.3,30.09,SW,229,5.1,6.9,67,0.00,OVC,,0.01,0.0,WeatherDisplay:10.37,2013-01-12 19:11:00,
2013-01-12 14:16:00,77.0,64.8,30.09,SW,222,1.1,4.6,66,0.00,OVC,,0.01,0.0,WeatherDisplay:10.37,2013-01-12 19:16:00,
2013-01-12 14:21:00,76.8,65.0,30.08,SSW,205,0.5,2.3,67,0.00,OVC,,0.01,0.0,WeatherDisplay:10.37,2013-01-12 19:21:00,
2013-01-12 14:26:00,76.7,64.5,30.08,WNW,297,3.1,5.8,66,0.00,OVC,,0.01,0.0,WeatherDisplay:10.37,2013-01-12 19:26:00,
2013-01-12 14:31:00,76.7,64.5,30.08,West,280,3.8,6.9,66,0.00,OVC,,0.01,0.0,WeatherDisplay:10.37,2013-01-12 19:31:00,
2013-01-12 14:36:00,76.9,64.2,30.08,West,273,5.0,5.8,65,0.00,OVC,,0.01,0.0,WeatherDisplay:10.37,2013-01-12 19:36:00,
2013-01-12 14:41:00,77.4,65.1,30.08,West,268,2.2,3.5,66,0.00,OVC,,0.01,0.0,WeatherDisplay:10.37,2013-01-12 19:41:00,
2013-01-12 14:46:00,78.2,64.6,30.08,WSW,250,3.7,8.0,63,0.00,OVC,,0.01,0.0,WeatherDisplay:10.37,2013-01-12 19:46:00,
2013-01-12 14:51:00,78.7,64.1,30.07,West,272,6.1,9.2,61,0.00,OVC,,0.01,0.0,WeatherDisplay:10.37,2013-01-12 19:51:00,
2013-01-12 14:56:00,78.7,64.1,30.07,West,265,4.0,9.2,61,0.00,OVC,,0.01,0.0,WeatherDisplay:10.37,2013-01-12 19:56:00,
2013-01-12 15:01:00,78.8,63.7,30.07,WSW,237,3.1,4.6,60,0.00,OVC,,0.01,0.0,WeatherDisplay:10.37,2013-01-12 20:01:00,
2013-01-12 15:06:00,79.0,63.9,30.07,SW,220,4.9,6.9,60,0.00,OVC,,0.01,0.0,WeatherDisplay:10.37,2013-01-12 20:06:00,
2013-01-12 15:11:00,79.1,64.0,30.07,SW,234,5.1,5.1,60,0.00,OVC,,0.01,0.0,WeatherDisplay:10.37,2013-01-12 20:11:00,
2013-01-12 15:16:00,79.2,63.6,30.07,WSW,250,4.0,11.5,59,0.00,OVC,,0.01,0.0,WeatherDisplay:10.37,2013-01-12 20:16:00,
2013-01-12 15:21:00,79.5,63.9,30.07,WNW,295,1.6,4.6,59,0.00,OVC,,0.01,0.0,WeatherDisplay:10.37,2013-01-12 20:21:00,
2013-01-12 15:26:00,79.9,64.8,30.07,WSW,242,0.2,1.1,60,0.00,OVC,,0.01,0.0,WeatherDisplay:10.37,2013-01-12 20:26:00,
2013-01-12 15:31:00,80.3,64.7,30.07,WNW,285,0.1,2.3,59,0.00,OVC,,0.01,0.0,WeatherDisplay:10.37,2013-01-12 20:31:00,
2013-01-12 15:36:00,80.5,63.4,30.07,West,265,3.2,5.8,56,0.00,OVC,,0.01,0.0,WeatherDisplay:10.37,2013-01-12 20:36:00,
2013-01-12 15:41:00,80.4,63.3,30.07,West,261,1.6,3.5,56,0.00,OVC,,0.01,0.0,WeatherDisplay:10.37,2013-01-12 20:41:00,
2013-01-12 15:46:00,80.4,62.8,30.07,WNW,291,3.7,10.4,55,0.00,OVC,,0.01,0.0,WeatherDisplay:10.37,2013-01-12 20:46:00,
2013-01-12 15:51:00,80.2,63.1,30.07,NNW,327,1.6,4.6,56,0.00,OVC,,0.01,0.0,WeatherDisplay:10.37,2013-01-12 20:51:00,
2013-01-12 15:56:00,80.3,63.2,30.07,WSW,254,1.7,3.5,56,0.00,OVC,,0.01,0.0,WeatherDisplay:10.37,2013-01-12 20:56:00,
2013-01-12 16:01:00,80.3,63.2,30.07,WSW,244,2.8,3.5,56,0.00,OVC,,0.01,0.0,WeatherDisplay:10.37,2013-01-12 21:01:00,
2013-01-12 16:06:00,80.1,62.5,30.07,West,263,0.7,3.5,55,0.00,OVC,,0.01,0.0,WeatherDisplay:10.37,2013-01-12 21:06:00,
2013-01-12 16:11:00,80.0,62.4,30.07,SW,235,1.6,3.5,55,0.00,OVC,,0.01,0.0,WeatherDisplay:10.37,2013-01-12 21:11:00,
2013-01-12 16:16:00,79.8,62.7,30.07,WSW,246,0.7,2.3,56,0.00,OVC,,0.01,0.0,WeatherDisplay:10.37,2013-01-12 21:16:00,
2013-01-12 16:21:00,79.7,62.6,30.07,West,261,2.8,5.8,56,0.00,OVC,,0.01,0.0,WeatherDisplay:10.37,2013-01-12 21:21:00,
2013-01-12 16:26:00,79.6,62.5,30.07,NW,305,0.8,3.5,56,0.00,OVC,,0.01,0.0,WeatherDisplay:10.37,2013-01-12 21:26:00,
2013-01-12 16:31:00,79.3,62.2,30.07,West,279,0.9,3.5,56,0.00,OVC,,0.01,0.0,WeatherDisplay:10.37,2013-01-12 21:31:00,
2013-01-12 16:36:00,78.6,62.6,30.07,WSW,256,1.0,3.5,58,0.00,OVC,,0.01,0.0,WeatherDisplay:10.37,2013-01-12 21:36:00,
2013-01-12 16:41:00,78.0,62.5,30.07,SW,221,0.2,1.1,59,0.00,OVC,,0.01,0.0,WeatherDisplay:10.37,2013-01-12 21:41:00,
2013-01-12 16:46:00,77.6,63.1,30.07,WSW,239,0.0,0.0,61,0.00,OVC,,0.01,0.0,WeatherDisplay:10.37,2013-01-12 21:46:00,
2013-01-12 16:51:00,77.3,62.8,30.07,WSW,238,0.0,0.0,61,0.00,OVC,,0.01,0.0,WeatherDisplay:10.37,2013-01-12 21:51:00,
2013-01-12 16:56:00,76.9,62.9,30.07,WSW,238,0.0,0.0,62,0.00,OVC,,0.01,0.0,WeatherDisplay:10.37,2013-01-12 21:56:00,
2013-01-12 17:01:00,76.5,63.0,30.07,WSW,238,0.0,0.0,63,0.00,OVC,,0.01,0.0,WeatherDisplay:10.37,2013-01-12 22:01:00,
2013-01-12 17:06:00,76.1,63.0,30.07,WSW,238,0.0,0.0,64,0.00,OVC,,0.01,0.0,WeatherDisplay:10.37,2013-01-12 22:06:00,
2013-01-12 17:11:00,75.7,63.1,30.07,WSW,238,0.0,0.0,65,0.00,OVC,,0.01,0.0,WeatherDisplay:10.37,2013-01-12 22:11:00,
2013-01-12 17:16:00,75.2,63.1,30.07,WSW,238,0.0,0.0,66,0.00,OVC,,0.01,0.0,WeatherDisplay:10.37,2013-01-12 22:16:00,
2013-01-12 17:21:00,74.6,63.3,30.07,WSW,238,0.0,0.0,68,0.00,OVC,,0.01,0.0,WeatherDisplay:10.37,2013-01-12 22:21:00,
2013-01-12 17:26:00,74.2,63.0,30.07,WSW,238,0.0,0.0,68,0.00,OVC,,0.01,0.0,WeatherDisplay:10.37,2013-01-12 22:26:00,
2013-01-12 17:31:00,73.7,62.9,30.08,WSW,238,0.0,0.0,69,0.00,OVC,,0.01,0.0,WeatherDisplay:10.37,2013-01-12 22:31:00,
2013-01-12 17:36:00,73.1,62.7,30.08,WSW,238,0.0,0.0,70,0.00,OVC,,0.01,0.0,WeatherDisplay:10.37,2013-01-12 22:36:00,
2013-01-12 17:41:00,72.6,62.7,30.08,WSW,238,0.0,0.0,71,0.00,OVC,,0.01,0.0,WeatherDisplay:10.37,2013-01-12 22:41:00,
2013-01-12 17:46:00,72.1,62.6,30.08,WSW,238,0.0,0.0,72,0.00,OVC,,0.01,0.0,WeatherDisplay:10.37,2013-01-12 22:46:00,
2013-01-12 17:51:00,71.5,62.0,30.08,WSW,238,0.0,0.0,72,0.00,OVC,,0.01,0.0,WeatherDisplay:10.37,2013-01-12 22:51:00,
2013-01-12 17:56:00,70.9,62.6,30.08,WSW,238,0.0,0.0,75,0.00,CLR,OVC,0.01,0.0,WeatherDisplay:10.37,2013-01-12 22:56:00,
2013-01-12 18:01:00,70.3,62.4,30.08,SW,230,0.0,0.0,76,0.00,CLR,OVC,0.01,0.0,WeatherDisplay:10.37,2013-01-12 23:01:00,
2013-01-12 18:06:00,69.6,62.1,30.08,SW,230,0.0,0.0,77,0.00,CLR,OVC,0.01,0.0,WeatherDisplay:10.37,2013-01-12 23:06:00,
2013-01-12 18:11:00,69.2,62.0,30.08,SW,230,0.0,0.0,78,0.00,CLR,OVC,0.01,0.0,WeatherDisplay:10.37,2013-01-12 23:11:00,
2013-01-12 18:16:00,68.7,61.9,30.08,SW,230,0.0,0.0,79,0.00,CLR,OVC,0.01,0.0,WeatherDisplay:10.37,2013-01-12 23:16:00,
2013-01-12 18:21:00,68.3,61.9,30.08,SW,230,0.0,0.0,80,0.00,CLR,OVC,0.01,0.0,WeatherDisplay:10.37,2013-01-12 23:21:00,
2013-01-12 18:26:00,67.9,61.9,30.08,SW,230,0.0,0.0,81,0.00,CLR,OVC,0.01,0.0,WeatherDisplay:10.37,2013-01-12 23:26:00,
2013-01-12 18:32:00,67.5,61.8,30.09,SW,230,0.0,0.0,82,0.00,CLR,OVC,0.01,0.0,WeatherDisplay:10.37,2013-01-12 23:32:00,
2013-01-12 18:37:00,67.2,61.5,30.09,SW,230,0.0,0.0,82,0.00,CLR,OVC,0.01,0.0,WeatherDisplay:10.37,2013-01-12 23:37:00,
2013-01-12 18:42:00,66.8,61.5,30.09,SW,230,0.0,0.0,83,0.00,CLR,OVC,0.01,0.0,WeatherDisplay:10.37,2013-01-12 23:42:00,
2013-01-12 18:47:00,66.5,61.5,30.09,SW,230,0.0,0.0,84,0.00,CLR,OVC,0.01,0.0,WeatherDisplay:10.37,2013-01-12 23:47:00,
2013-01-12 18:52:00,66.2,61.2,30.09,SW,230,0.1,0.0,84,0.00,CLR,OVC,0.01,0.0,WeatherDisplay:10.37,2013-01-12 23:52:00,
2013-01-12 18:57:00,65.9,61.6,30.09,SW,230,0.2,1.1,86,0.00,CLR,OVC,0.01,0.0,WeatherDisplay:10.37,2013-01-12 23:57:00,
2013-01-12 19:02:00,65.6,61.3,30.09,SW,230,0.0,1.1,86,0.00,CLR,OVC,0.01,0.0,WeatherDisplay:10.37,2013-01-13 00:02:00,
2013-01-12 19:07:00,65.4,61.1,30.09,SW,230,0.1,1.0,86,0.00,CLR,OVC,0.01,0.0,WeatherDisplay:10.37,2013-01-13 00:07:00,
2013-01-12 19:12:00,65.1,61.1,30.08,SW,230,0.0,0.0,87,0.00,CLR,OVC,0.01,0.0,WeatherDisplay:10.37,2013-01-13 00:12:00,
2013-01-12 19:17:00,64.9,61.3,30.08,SW,230,0.1,1.1,88,0.00,CLR,OVC,0.01,0.0,WeatherDisplay:10.37,2013-01-13 00:17:00,
2013-01-12 19:22:00,64.9,61.6,30.08,SW,230,0.2,1.1,89,0.00,CLR,OVC,0.01,0.0,WeatherDisplay:10.37,2013-01-13 00:22:00,
2013-01-12 19:27:00,65.2,61.9,30.08,SW,230,0.8,1.1,89,0.00,CLR,OVC,0.01,0.0,WeatherDisplay:10.37,2013-01-13 00:27:00,
2013-01-12 19:32:00,65.3,61.7,30.08,SW,230,0.0,0.0,88,0.00,CLR,OVC,0.01,0.0,WeatherDisplay:10.37,2013-01-13 00:32:00,
2013-01-12 19:37:00,65.4,61.8,30.08,SW,230,0.4,1.1,88,0.00,CLR,OVC,0.01,0.0,WeatherDisplay:10.37,2013-01-13 00:37:00,
2013-01-12 19:42:00,65.6,61.9,30.08,SW,230,0.3,2.3,88,0.00,CLR,OVC,0.01,0.0,WeatherDisplay:10.37,2013-01-13 00:42:00,
2013-01-12 19:47:00,65.7,61.7,30.08,SW,223,0.0,1.1,87,0.00,CLR,OVC,0.01,0.0,WeatherDisplay:10.37,2013-01-13 00:47:00,
2013-01-12 19:52:00,65.8,61.8,30.08,SSW,202,0.9,1.1,87,0.00,CLR,OVC,0.01,0.0,WeatherDisplay:10.37,2013-01-13 00:52:00,
2013-01-12 19:57:00,65.7,61.7,30.08,South,187,2.1,3.5,87,0.00,CLR,OVC,0.01,0.0,WeatherDisplay:10.37,2013-01-13 00:57:00,
2013-01-12 20:02:00,65.7,61.7,30.08,SSW,195,0.2,2.3,87,0.00,CLR,OVC,0.01,0.0,WeatherDisplay:10.37,2013-01-13 01:02:00,
2013-01-12 20:07:00,65.6,61.6,30.08,SSW,198,0.1,1.1,87,0.00,CLR,OVC,0.01,0.0,WeatherDisplay:10.37,2013-01-13 01:07:00,
2013-01-12 20:12:00,65.5,61.5,30.08,SW,216,0.5,1.1,87,0.00,CLR,OVC,0.01,0.0,WeatherDisplay:10.37,2013-01-13 01:12:00,
2013-01-12 20:17:00,65.5,61.5,30.08,SW,228,0.0,2.3,87,0.00,CLR,OVC,0.01,0.0,WeatherDisplay:10.37,2013-01-13 01:17:00,
2013-01-12 20:22:00,65.4,61.4,30.08,SW,227,0.2,2.3,87,0.00,CLR,OVC,0.01,0.0,WeatherDisplay:10.37,2013-01-13 01:22:00,
2013-01-12 20:27:00,65.4,61.4,30.08,SW,231,0.0,0.0,87,0.00,CLR,OVC,0.01,0.0,WeatherDisplay:10.37,2013-01-13 01:27:00,
2013-01-12 20:32:00,65.3,61.3,30.08,SW,231,0.0,0.0,87,0.00,CLR,OVC,0.01,0.0,WeatherDisplay:10.37,2013-01-13 01:32:00,
2013-01-12 20:37:00,65.1,61.1,30.08,SSW,196,0.8,2.3,87,0.00,CLR,OVC,0.01,0.0,WeatherDisplay:10.37,2013-01-13 01:37:00,
2013-01-12 20:42:00,65.0,61.0,30.08,SSW,197,0.0,0.0,87,0.00,CLR,OVC,0.01,0.0,WeatherDisplay:10.37,2013-01-13 01:42:00,
2013-01-12 20:47:00,64.9,60.9,30.08,SSW,197,0.0,1.1,87,0.00,CLR,OVC,0.01,0.0,WeatherDisplay:10.37,2013-01-13 01:47:00,
2013-01-12 20:52:00,64.6,61.0,30.08,SW,234,1.2,3.5,88,0.00,CLR,OVC,0.01,0.0,WeatherDisplay:10.37,2013-01-13 01:52:00,
2013-01-12 20:57:00,64.6,61.0,30.08,WSW,253,0.3,1.1,88,0.00,CLR,OVC,0.01,0.0,WeatherDisplay:10.37,2013-01-13 01:57:00,
2013-01-12 21:02:00,64.6,61.0,30.08,WSW,238,1.5,4.6,88,0.00,CLR,OVC,0.01,0.0,WeatherDisplay:10.37,2013-01-13 02:02:00,
2013-01-12 21:07:00,64.7,61.1,30.08,WSW,257,0.1,1.1,88,0.00,CLR,OVC,0.01,0.0,WeatherDisplay:10.37,2013-01-13 02:07:00,
2013-01-12 21:12:00,64.6,60.6,30.08,SW,226,0.0,1.1,87,0.00,CLR,OVC,0.01,0.0,WeatherDisplay:10.37,2013-01-13 02:12:00,
2013-01-12 21:17:00,64.5,60.9,30.08,SW,232,0.3,1.1,88,0.00,CLR,OVC,0.01,0.0,WeatherDisplay:10.37,2013-01-13 02:17:00,
2013-01-12 21:22:00,64.4,60.8,30.08,SW,230,0.2,0.0,88,0.00,CLR,OVC,0.01,0.0,WeatherDisplay:10.37,2013-01-13 02:22:00,
2013-01-12 21:27:00,64.2,60.6,30.08,WSW,247,0.9,2.3,88,0.00,CLR,OVC,0.01,0.0,WeatherDisplay:10.37,2013-01-13 02:27:00,
2013-01-12 21:32:00,64.2,60.6,30.08,SSW,209,0.3,1.1,88,0.00,CLR,OVC,0.01,0.0,WeatherDisplay:10.37,2013-01-13 02:32:00,
2013-01-12 21:37:00,64.1,60.5,30.08,SW,223,0.8,2.3,88,0.00,CLR,OVC,0.01,0.0,WeatherDisplay:10.37,2013-01-13 02:37:00,
2013-01-12 21:42:00,64.2,60.6,30.07,WSW,238,0.2,1.1,88,0.00,CLR,OVC,0.01,0.0,WeatherDisplay:10.37,2013-01-13 02:42:00,
2013-01-12 21:47:00,64.1,60.5,30.07,WSW,238,0.3,1.1,88,0.00,CLR,OVC,0.01,0.0,WeatherDisplay:10.37,2013-01-13 02:47:00,
2013-01-12 21:52:00,64.0,60.4,30.08,WSW,238,0.1,1.1,88,0.00,CLR,OVC,0.01,0.0,WeatherDisplay:10.37,2013-01-13 02:52:00,
2013-01-12 21:57:00,63.9,60.3,30.08,SW,226,0.3,3.5,88,0.00,CLR,OVC,0.01,0.0,WeatherDisplay:10.37,2013-01-13 02:57:00,
2013-01-12 22:02:00,63.8,60.2,30.08,SW,229,0.5,2.3,88,0.00,CLR,OVC,0.01,0.0,WeatherDisplay:10.37,2013-01-13 03:02:00,
2013-01-12 22:07:00,63.7,60.4,30.08,SW,227,0.1,1.1,89,0.00,CLR,OVC,0.01,0.0,WeatherDisplay:10.37,2013-01-13 03:07:00,
2013-01-12 22:12:00,63.6,60.0,30.08,SW,229,0.1,1.1,88,0.00,CLR,OVC,0.01,0.0,WeatherDisplay:10.37,2013-01-13 03:12:00,
2013-01-12 22:17:00,63.5,59.9,30.08,SW,229,0.0,0.0,88,0.00,CLR,OVC,0.01,0.0,WeatherDisplay:10.37,2013-01-13 03:17:00,
2013-01-12 22:22:00,63.3,60.0,30.08,SW,229,0.1,1.1,89,0.00,CLR,OVC,0.01,0.0,WeatherDisplay:10.37,2013-01-13 03:22:00,
2013-01-12 22:27:00,63.1,59.8,30.08,SW,228,0.3,1.1,89,0.00,CLR,OVC,0.01,0.0,WeatherDisplay:10.37,2013-01-13 03:27:00,
2013-01-12 22:32:00,62.9,59.6,30.08,SSW,202,0.0,0.0,89,0.00,CLR,OVC,0.01,0.0,WeatherDisplay:10.37,2013-01-13 03:32:00,
2013-01-12 22:37:00,62.7,59.4,30.08,SSW,208,1.0,3.5,89,0.00,CLR,OVC,0.01,0.0,WeatherDisplay:10.37,2013-01-13 03:37:00,
2013-01-12 22:42:00,62.5,59.5,30.08,SSW,208,0.0,0.0,90,0.00,CLR,OVC,0.01,0.0,WeatherDisplay:10.37,2013-01-13 03:42:00,
2013-01-12 22:47:00,62.4,59.4,30.08,SSW,208,0.0,2.3,90,0.00,CLR,OVC,0.01,0.0,WeatherDisplay:10.37,2013-01-13 03:47:00,
2013-01-12 22:52:00,62.3,59.3,30.08,SSW,208,0.0,0.0,90,0.00,CLR,OVC,0.01,0.0,WeatherDisplay:10.37,2013-01-13 03:52:00,
2013-01-12 22:57:00,62.3,59.3,30.08,SSW,205,1.8,3.5,90,0.00,CLR,OVC,0.01,0.0,WeatherDisplay:10.37,2013-01-13 03:57:00,
2013-01-12 23:02:00,62.3,59.3,30.08,SSW,207,0.3,1.1,90,0.00,CLR,OVC,0.01,0.0,WeatherDisplay:10.37,2013-01-13 04:02:00,
2013-01-12 23:07:00,62.3,59.3,30.08,SSW,207,0.7,2.3,90,0.00,CLR,OVC,0.01,0.0,WeatherDisplay:10.37,2013-01-13 04:07:00,
2013-01-12 23:12:00,62.3,59.3,30.08,SSW,209,0.3,1.1,90,0.00,CLR,OVC,0.01,0.0,WeatherDisplay:10.37,2013-01-13 04:12:00,
2013-01-12 23:17:00,62.2,59.2,30.08,SSW,209,0.1,1.1,90,0.00,CLR,OVC,0.01,0.0,WeatherDisplay:10.37,2013-01-13 04:17:00,
2013-01-12 23:22:00,62.2,59.2,30.08,SSW,209,0.4,2.0,90,0.00,CLR,OVC,0.01,0.0,WeatherDisplay:10.37,2013-01-13 04:22:00,
2013-01-12 23:27:00,62.2,59.2,30.08,SSW,209,0.0,0.0,90,0.00,CLR,OVC,0.01,0.0,WeatherDisplay:10.37,2013-01-13 04:27:00,
2013-01-12 23:32:00,62.1,58.8,30.09,SSW,209,0.0,0.0,89,0.00,CLR,OVC,0.01,0.0,WeatherDisplay:10.37,2013-01-13 04:32:00,
2013-01-12 23:37:00,61.9,58.6,30.09,SSW,209,0.0,0.0,89,0.00,CLR,OVC,0.01,0.0,WeatherDisplay:10.37,2013-01-13 04:37:00,
2013-01-12 23:42:00,61.8,58.8,30.09,SW,218,0.1,1.1,90,0.00,CLR,OVC,0.01,0.0,WeatherDisplay:10.37,2013-01-13 04:42:00,
2013-01-12 23:47:00,61.6,58.6,30.09,SW,236,2.1,3.5,90,0.00,CLR,OVC,0.01,0.0,WeatherDisplay:10.37,2013-01-13 04:47:00,
2013-01-12 23:52:00,61.7,58.7,30.09,SSW,211,0.8,2.3,90,0.00,CLR,OVC,0.01,0.0,WeatherDisplay:10.37,2013-01-13 04:52:00,
2013-01-12 23:57:00,61.8,59.1,30.09,SW,225,1.6,2.3,91,0.00,CLR,OVC,0.01,0.0,WeatherDisplay:10.37,2013-01-13 04:57:00,